{"data":{"norad_id":61957,"intl_designator":"2024-209U","name":"STARLINK-32359","alt_names":[],"object_type":"PAYLOAD","status":"ACTIVE","operator":null,"country":"US","launch_date":"2024-11-14","launch_site_code":"AFWTR","launch_vehicle":null,"mission":null,"orbit_class":"UNKNOWN","rcs_meters":null,"size_class":null,"mass_kg":null,"dimensions":null,"purposes":["comms"],"wikipedia_slug":null,"has_3d_model":false,"image_url":null,"decayed_at":null,"tle_current":{"epoch":"2026-09-21T02:51:50.810112Z","epoch_age_seconds":132133,"freshness":"FRESH","line1":"1 61957U 24209U   26264.11933808  .00014766  00000+0  44728-3 0  9999","line2":"2 61957  53.1610 305.0066 0001470  83.3371 276.7799 15.34400079104974","mean_motion":15.34400079,"eccentricity":0.000147,"inclination_deg":53.161,"raan_deg":305.0066,"arg_perigee_deg":83.3371,"mean_anomaly_deg":276.7799,"bstar":0.00044728,"rev_number":10497,"period_min":93.847753249497,"perigee_km":461.69740192167,"apogee_km":463.70860888326,"semimajor_km":6840.8400054025,"source":"CELESTRAK","updated_at":"2026-09-22T09:00:49.457427Z"}}}